Weather History for KP28 - April, 2014

Change the Weather History Date:

Saturday, April 12, 2014

  Actual Average Record
Temperature  
Mean Temperature 76 °F 55 °F  
Max Temperature 94 °F 67 °F 98 °F (1972)
Min Temperature 57 °F 43 °F 20 °F (1997)
Degree Days  
Heating Degree Days 0 11  
Month to date heating degree days 133 147  
Since 1 July heating degree days 4808 4244  
Cooling Degree Days 11 1  
Month to date cooling degree days 11 4  
Year to date cooling degree days 11 6  
Growing Degree Days 25 (Base 50)    
Moisture  
Dew Point 54 °F    
Average Humidity 58    
Maximum Humidity 100    
Minimum Humidity 16    
Precipitation  
Precipitation 0.00 in 0.08 in 1.63 in (1967)
Month to date precipitation 0.08 0.82  
Year to date precipitation 1.52 4.83  
Snow  
Snow 0.00 in 0.00 in - ()
Month to date snowfall 0.0 0.0  
Since 1 July snowfall 27.0 8.5  
Snow Depth 0.00 in    
Sea Level Pressure  
Sea Level Pressure 29.59 in    
Wind  
Wind Speed 16 mph (SSE)    
Max Wind Speed 35 mph    
Max Gust Speed 45 mph    
T = Trace of Precipitation, MM = Missing Value Source: NWS Daily Summary

Daily Weather History Graph

Daily Weather History Graph

Search for Another Location

Airport or City:

Trip Planner

Search our weather history database for the weather conditions in past years. The results will help you decide how hot, cold, wet, or windy it might be!

Date:

Astronomy

Apr. 12, 2014 Rise Set
Actual Time 7:03 AM CDT 8:06 PM CDT
Civil Twilight 6:37 AM CDT 8:33 PM CDT
Nautical Twilight 6:05 AM CDT 9:05 PM CDT
Astronomical Twilight 5:32 AM CDT 9:38 PM CDT
Moon 5:49 PM CDT (4/12) 5:27 AM CDT (4/12)
Length of Visible Light 13h 56m
Length of Day
13h 02m
Waxing Gibbous, 93% of the Moon is Illuminated
Apr 12
Waxing Gibbous
Apr 15
Full
Apr 22
Last Quarter
Apr 29
New
May 6
First Quarter

Hourly Weather History & Observations

Time (CDT) Temp. Heat Index Dew Point Humidity Pressure Visibility Wind Dir Wind Speed Gust Speed Precip Events Conditions
12:56 AM 66.0 °F - 55.9 °F 70% 29.80 in - SSE 9.2 mph - N/A   Unknown
1:56 AM 64.9 °F - 55.9 °F 73% 29.78 in - SSE 9.2 mph - N/A   Unknown
2:56 AM 61.0 °F - 55.0 °F 81% 29.76 in - SE 8.1 mph - N/A   Unknown
3:56 AM 64.0 °F - 55.0 °F 73% 29.73 in - SE 9.2 mph - N/A   Unknown
4:56 AM 59.0 °F - 55.0 °F 87% 29.71 in - SE 10.4 mph - N/A   Unknown
5:56 AM 57.9 °F - 55.9 °F 93% 29.70 in - SE 11.5 mph - N/A   Unknown
6:56 AM 62.1 °F - 55.9 °F 80% 29.68 in - SE 11.5 mph - N/A   Unknown
7:56 AM 57.9 °F - 57.0 °F 97% 29.70 in - SE 8.1 mph - N/A   Unknown
8:56 AM 63.0 °F - 59.0 °F 87% 29.68 in - SSE 12.7 mph 19.6 mph N/A   Unknown
9:56 AM 66.9 °F - 60.1 °F 79% 29.66 in - South 10.4 mph 20.7 mph N/A   Unknown
10:56 AM 71.1 °F - 57.9 °F 63% 29.64 in - South 19.6 mph 24.2 mph N/A   Unknown
11:56 AM 75.9 °F - 57.0 °F 52% 29.62 in - South 15.0 mph 23.0 mph N/A   Unknown
12:56 PM 82.9 °F - 52.0 °F 34% 29.57 in - South 16.1 mph 29.9 mph N/A   Unknown
1:56 PM 88.0 °F - 48.0 °F 25% 29.52 in - South 18.4 mph 28.8 mph N/A   Unknown
2:56 PM 91.9 °F - 39.9 °F 16% 29.49 in - South 20.7 mph 28.8 mph N/A   Unknown
3:56 PM 93.0 °F - 44.1 °F 18% 29.46 in - South 18.4 mph 33.4 mph N/A   Unknown
4:56 PM 89.1 °F - 44.1 °F 21% 29.44 in - South 17.3 mph 28.8 mph N/A   Unknown
5:56 PM 90.0 °F - 43.0 °F 19% 29.44 in - SSW 26.5 mph 36.8 mph N/A   Unknown
6:56 PM 86.0 °F - 51.1 °F 30% 29.44 in - South 27.6 mph 39.1 mph N/A   Unknown
7:56 PM 80.1 °F 80.4 °F 57.0 °F 45% 29.47 in - South 19.6 mph 32.2 mph N/A   Unknown
8:56 PM 78.1 °F - 57.0 °F 48% 29.47 in - South 15.0 mph 25.3 mph N/A   Unknown
9:56 PM 78.1 °F - 57.9 °F 50% 29.47 in - South 19.6 mph 26.5 mph N/A   Unknown
10:56 PM 75.0 °F - 57.9 °F 55% 29.46 in - South 17.3 mph 29.9 mph N/A   Unknown
11:56 PM 78.1 °F - 57.0 °F 48% 29.46 in - South 21.9 mph 41.4 mph N/A   Unknown